Back to catalog

STARLINK-4483

AliveCommunicationsVLEO
NORAD 53532·PAYLOAD·🇺🇸 United States

Launched Aug 19, 2022 from Cape Canaveral Space Force Station

Loading…

Next Passes (next 24 hours)

TLE

FreshSource: CelesTrak SupGP

Epoch: Sep 14, 2026, 13:09 UTC

1 53532C 22101F   26257.54840278  .00038008  00000+0  23840-2 0  2578
2 53532  53.1590 305.6795 0001176  80.5008  76.2008 15.08808110    10

Track STARLINK-4483 in real time with AllMySat

Download on the App Store